Tracking 30970 objects as of 3-Jul-2025
HD Live streaming from Space Station
objects crossing your sky now

STARLINK-11310

Track STARLINK-11310 now!
10-day predictions


NORAD ID: 61212
Int'l Code: 2024-171N
Perigee: 366.5 km
Apogee: 367.2 km
Inclination: 53.2 °
Period: 91.7 minutes
Semi major axis: 6737 km
RCS: Unknown
Launch date: September 20, 2024
Source: United States (US)
Launch site: AIR FORCE WESTERN TEST RANGE (AFWTR)
Your satellite tracking list
STARLINK-1243
Track 1 satellite(s)




NASA's NSSDC Master Catalog

Two Line Element Set (TLE):
1 61212U 24171N   25183.77651288 -.00001409  00000-0 -67817-5 0  9990
2 61212  53.1572 328.4878 0000516  85.2931 274.8146 15.69714721 45146
Source of the keplerian elements: AFSPC